OK,98,39,902,98,2014-10-01T01:40:00,0,28072672,209748
OK,98,39,902,98,2014-10-01T01:45:00,0,28073119,209748
OK,98,39,902,98,2014-10-01T01:50:00,0,28073567,209748
OK,98,39,902,98,2014-10-01T01:55:00,0,28073885,209748
OK,98,39,902,98,2014-10-01T02:00:00,0,28074334,209748
OK,98,39,902,98,2014-10-01T02:05:00,0,28074775,209748
OK,98,39,902,98,2014-10-01T02:10:00,0,28075223,209748
OK,98,39,902,98,2014-10-01T02:15:00,0,28075672,209748
OK,98,39,902,98,2014-10-01T02:20:00,0,28076057,209748
OK,98,39,902,98,2014-10-01T02:25:00,0,28076504,209748
OK,98,39,902,98,2014-10-01T02:30:00,0,28076953,209748
OK,98,39,902,98,2014-10-01T02:35:00,0,28077402,209748
OK,98,39,902,98,2014-10-01T02:40:00,0,28077805,209748
OK,98,39,902,98,2014-10-01T02:45:00,0,28078254,209748
OK,98,39,902,98,2014-10-01T02:50:00,0,28078699,209748
OK,98,39,902,98,2014-10-01T02:55:00,0,28079148,209748
OK,98,39,902,98,2014-10-01T03:00:00,0,28079590,209748
OK,98,39,902,98,2014-10-01T03:05:00,0,28080039,209748
OK,98,39,902,98,2014-10-01T03:10:00,0,28080373,209748
OK,98,39,902,98,2014-10-01T03:15:00,0,28080822,209748
OK,98,39,902,98,2014-10-01T03:20:00,0,28081271,209748
OK,98,39,902,98,2014-10-01T03:25:00,0,28081718,209748
OK,98,39,902,98,2014-10-01T03:30:00,0,28082167,209748
OK,98,39,902,98,2014-10-01T03:35:00,0,28082600,209748
OK,98,39,902,98,2014-10-01T03:40:00,0,28083032,209748
OK,98,39,902,98,2014-10-01T03:45:00,0,28083481,209748
OK,98,39,902,98,2014-10-01T03:50:00,0,28083930,209748
OK,98,39,902,98,2014-10-01T03:55:00,0,28084372,209748
OK,98,39,902,98,2014-10-01T04:00:00,0,28084797,209748
OK,98,39,902,98,2014-10-01T04:05:00,0,28085245,209748
OK,98,39,902,98,2014-10-01T04:10:00,0,28085690,209748
OK,98,39,902,98,2014-10-01T04:15:00,0,28086139,209748
OK,98,39,902,98,2014-10-01T04:20:00,0,28086581,209748
OK,98,39,902,98,2014-10-01T04:25:00,0,28087030,209748
OK,98,39,902,98,2014-10-01T04:30:00,0,28087475,209748
OK,98,39,902,98,2014-10-01T04:35:00,0,28087924,209748
OK,98,39,902,98,2014-10-01T04:40:00,0,28088349,209748
OK,98,39,902,98,2014-10-01T04:45:00,0,28088797,209748
OK,98,39,902,98,2014-10-01T04:50:00,0,28089227,209748
OK,98,39,902,98,2014-10-01T04:55:00,0,28089676,209748
OK,98,39,902,98,2014-10-01T05:05:00,0,28090125,209748
OK,98,39,902,98,2014-10-01T05:10:00,0,28090918,209748
OK,98,39,902,98,2014-10-01T05:15:00,0,28091367,209748
OK,98,39,902,98,2014-10-01T05:20:00,0,28091784,209748
OK,98,39,902,98,2014-10-01T05:25:00,0,28092233,209748
OK,98,39,902,98,2014-10-01T05:30:00,0,28092677,209748
OK,98,39,902,98,2014-10-01T05:35:00,0,28093118,209748
OK,98,39,902,98,2014-10-01T05:40:00,0,28093549,209748
OK,98,39,902,98,2014-10-01T05:45:00,0,28093998,209748
OK,98,39,902,98,2014-10-01T05:50:00,0,28094410,209748
OK,98,39,902,98,2014-10-01T05:55:00,0,28094854,209748
OK,98,39,902,98,2014-10-01T06:00:00,0,28095301,209748
OK,98,39,902,98,2014-10-01T06:05:00,0,28095750,209748
OK,98,39,902,98,2014-10-01T06:10:00,0,28096163,209748
OK,98,39,902,98,2014-10-01T06:15:00,0,28096612,209748
OK,98,39,902,98,2014-10-01T06:20:00,0,28097046,209748
OK,98,39,902,98,2014-10-01T06:25:00,0,28097495,209748
OK,98,39,902,98,2014-10-01T06:30:00,0,28097944,209748
OK,98,39,902,98,2014-10-01T06:35:00,0,28098382,209748
OK,98,39,902,98,2014-10-01T06:40:00,0,28098825,209748
OK,98,39,902,98,2014-10-01T06:45:00,0,28099273,209748
OK,98,39,902,98,2014-10-01T06:50:00,0,28099616,209748
OK,98,39,902,98,2014-10-01T06:55:00,0,28100065,209748
OK,98,39,902,98,2014-10-01T07:00:00,0,28100372,209748
OK,98,39,902,98,2014-10-01T07:05:00,0,28100821,209748
OK,98,39,902,98,2014-10-01T07:10:00,0,28101192,209748
OK,98,39,902,98,2014-10-01T07:15:00,0,28101641,209748
OK,98,39,902,98,2014-10-01T07:20:00,0,28102077,209748
OK,98,39,902,98,2014-10-01T07:25:00,0,28102526,209748
OK,98,39,902,98,2014-10-01T07:30:00,0,28102956,209748
OK,98,39,902,98,2014-10-01T07:35:00,0,28103400,209748
OK,98,39,902,98,2014-10-01T07:40:00,0,28103845,209748
OK,98,39,902,98,2014-10-01T07:45:00,0,28104290,209748
OK,98,39,902,98,2014-10-01T07:50:00,0,28104732,209748
OK,98,39,902,98,2014-10-01T07:55:00,0,28105176,209748
OK,98,39,902,98,2014-10-01T08:00:00,0,28105616,209748
OK,98,39,902,98,2014-10-01T08:05:00,0,28106065,209748
OK,98,39,902,98,2014-10-01T08:10:00,0,28106502,209748
OK,98,39,902,98,2014-10-01T08:15:00,0,28106908,209748
OK,98,39,902,98,2014-10-01T08:20:00,0,28107340,209748
OK,98,39,902,98,2014-10-01T08:25:00,0,28107789,209748
OK,98,39,902,98,2014-10-01T08:30:00,0,28108228,209748
OK,98,39,902,98,2014-10-01T08:35:00,0,28108677,209748
OK,98,39,902,98,2014-10-01T08:40:00,0,28109105,209748
OK,98,39,902,98,2014-10-01T08:45:00,0,28109554,209748
OK,98,39,902,98,2014-10-01T08:50:00,0,28109897,209748
OK,98,39,902,98,2014-10-01T08:55:00,0,28110346,209748
OK,98,39,902,98,2014-10-01T09:00:00,0,28110769,209748
OK,98,39,902,98,2014-10-01T09:05:00,0,28111218,209748
OK,98,39,902,98,2014-10-01T09:10:00,0,28111647,209748
OK,98,39,902,98,2014-10-01T09:15:00,0,28112096,209748
OK,98,39,902,98,2014-10-01T09:20:00,0,28112437,209748
OK,98,39,902,98,2014-10-01T09:25:00,0,28112886,209748
OK,98,39,902,98,2014-10-01T09:30:00,0,28113310,209748
OK,98,39,902,98,2014-10-01T09:35:00,0,28113759,209748
OK,98,39,902,98,2014-10-01T09:40:00,0,28114191,209748
OK,98,39,902,98,2014-10-01T09:45:00,0,28114640,209748
OK,98,39,902,98,2014-10-01T09:50:00,0,28114994,209748
OK,98,39,902,98,2014-10-01T09:55:00,0,28115443,209748
OK,98,39,902,98,2014-10-01T10:00:00,0,28115855,209748
OK,98,39,902,98,2014-10-01T10:05:00,0,28116304,209748
OK,98,39,902,98,2014-10-01T10:10:00,0,28116712,209748
OK,98,39,902,98,2014-10-01T10:15:00,0,28117161,209748
OK,98,39,902,98,2014-10-01T10:20:00,0,28117586,209748
OK,98,39,902,98,2014-10-01T10:25:00,0,28118035,209748
OK,98,39,902,98,2014-10-01T10:30:00,0,28118480,209748
OK,98,39,902,98,2014-10-01T10:35:00,0,28118927,209748
OK,98,39,902,98,2014-10-01T10:40:00,0,28119371,209748
OK,98,39,902,98,2014-10-01T10:45:00,0,28119819,209748
OK,98,39,902,98,2014-10-01T10:50:00,0,28120267,209748
OK,98,39,902,98,2014-10-01T10:55:00,0,28120716,209748
OK,98,39,902,98,2014-10-01T11:00:00,0,28121099,209748
OK,98,39,902,98,2014-10-01T11:05:00,0,28121548,209748
OK,98,39,902,98,2014-10-01T11:10:00,0,28121986,209748
OK,98,39,902,98,2014-10-01T11:15:00,0,28122435,209748
OK,98,39,902,98,2014-10-01T11:20:00,0,28122876,209748
OK,98,39,902,98,2014-10-01T11:25:00,0,28123325,209748
OK,98,39,902,98,2014-10-01T11:30:00,0,28123757,209748
OK,98,39,902,98,2014-10-01T11:35:00,0,28124206,209748
OK,98,39,902,98,2014-10-01T11:40:00,0,28124608,209748
OK,98,39,902,98,2014-10-01T11:45:00,0,28125057,209748
OK,98,39,902,98,2014-10-01T11:50:00,0,28125486,209748
OK,98,39,902,98,2014-10-01T11:55:00,0,28125935,209748
OK,98,39,902,98,2014-10-01T12:00:00,0,28126287,209748
OK,98,39,902,98,2014-10-01T12:05:00,0,28126736,209748
OK,98,39,902,98,2014-10-01T12:10:00,0,28127185,209748
OK,98,39,902,98,2014-10-01T12:15:00,0,28127634,209748
OK,98,39,902,98,2014-10-01T12:20:00,0,28128062,209748
OK,98,39,902,98,2014-10-01T12:25:00,0,28128511,209748
OK,98,39,902,98,2014-10-01T12:30:00,0,28128946,209748
OK,98,39,902,98,2014-10-01T12:35:00,0,28129395,209748
OK,98,39,902,98,2014-10-01T12:40:00,0,28129829,209748
OK,98,39,902,98,2014-10-01T12:45:00,0,28130278,209748
OK,98,39,902,98,2014-10-01T12:50:00,0,28130706,209748
OK,98,39,902,98,2014-10-01T12:55:00,0,28131155,209748
OK,98,39,902,98,2014-10-01T13:00:00,0,28131592,209748
OK,98,39,902,98,2014-10-01T13:05:00,0,28132041,209748
OK,98,39,902,98,2014-10-01T13:10:00,0,28132479,209748
OK,98,39,902,98,2014-10-01T13:15:00,0,28132926,209748
OK,98,39,902,98,2014-10-01T13:20:00,0,28133364,209748
OK,98,39,902,98,2014-10-01T13:25:00,0,28133813,209748
OK,98,39,902,98,2014-10-01T13:30:00,0,28134252,209748
OK,98,39,902,98,2014-10-01T13:35:00,0,28134701,209748
OK,332,11,902,332,2014-10-01T13:40:00,2,28135120,209748
OK,219,17,902,219,2014-10-01T13:45:00,1,28135569,209748
OK,219,17,902,219,2014-10-01T13:50:00,0,28136006,209748
OK,219,17,902,219,2014-10-01T13:55:00,0,28136455,209748
OK,219,17,902,219,2014-10-01T14:00:00,0,28136895,209748
OK,219,17,902,219,2014-10-01T14:05:00,0,28137344,209748
OK,219,17,902,219,2014-10-01T14:10:00,0,28137778,209748
OK,219,17,902,219,2014-10-01T14:15:00,0,28138227,209748
OK,219,17,902,219,2014-10-01T14:20:00,0,28138655,209748
OK,219,17,902,219,2014-10-01T14:25:00,0,28139104,209748
OK,219,17,902,219,2014-10-01T14:30:00,0,28139515,209748
OK,62,62,902,62,2014-10-01T14:35:00,1,28139964,209748
OK,62,62,902,62,2014-10-01T14:40:00,1,28140406,209748
OK,219,17,902,219,2014-10-01T14:45:00,0,28140855,209748
OK,219,17,902,219,2014-10-01T14:50:00,0,28141281,209748
OK,219,17,902,219,2014-10-01T14:55:00,0,28141730,209748
OK,219,17,902,219,2014-10-01T15:00:00,0,28142158,209748
OK,219,17,902,219,2014-10-01T15:05:00,0,28142607,209748
OK,219,17,902,219,2014-10-01T15:10:00,0,28143034,209748
OK,219,17,902,219,2014-10-01T15:15:00,0,28143483,209748
OK,219,17,902,219,2014-10-01T15:20:00,0,28143931,209748
OK,219,17,902,219,2014-10-01T15:25:00,0,28144380,209748
OK,219,17,902,219,2014-10-01T15:30:00,0,28144802,209748
OK,219,17,902,219,2014-10-01T15:35:00,0,28145215,209748
OK,219,17,902,219,2014-10-01T15:40:00,0,28145664,209748
OK,219,17,902,219,2014-10-01T15:45:00,0,28146113,209748
OK,219,17,902,219,2014-10-01T15:50:00,0,28146562,209748
OK,219,17,902,219,2014-10-01T15:55:00,0,28146971,209748
OK,219,17,902,219,2014-10-01T16:00:00,0,28147414,209748
OK,219,17,902,219,2014-10-01T16:05:00,0,28147863,209748
OK,219,17,902,219,2014-10-01T16:10:00,0,28148264,209748
OK,219,17,902,219,2014-10-01T16:15:00,0,28148713,209748
OK,219,17,902,219,2014-10-01T16:20:00,0,28149152,209748
OK,155,24,902,155,2014-10-01T16:25:00,1,28149601,209748
OK,155,24,902,155,2014-10-01T16:30:00,1,28150027,209748
OK,155,24,902,155,2014-10-01T16:35:00,0,28150476,209748
OK,155,24,902,155,2014-10-01T16:40:00,0,28150894,209748
OK,155,24,902,155,2014-10-01T16:45:00,0,28151343,209748
OK,155,24,902,155,2014-10-01T16:50:00,0,28151792,209748
OK,195,19,902,195,2014-10-01T17:00:00,1,28152241,209748
OK,195,19,902,195,2014-10-01T17:05:00,0,28152687,209748
OK,195,19,902,195,2014-10-01T17:10:00,0,28153134,209748
OK,195,19,902,195,2014-10-01T17:15:00,0,28153583,209748
OK,200,19,902,200,2014-10-01T17:20:00,1,28153993,209748
OK,200,19,902,200,2014-10-01T17:25:00,1,28154442,209748
OK,200,19,902,200,2014-10-01T17:30:00,0,28154884,209748
OK,200,19,902,200,2014-10-01T17:35:00,0,28155332,209748
OK,200,19,902,200,2014-10-01T17:40:00,0,28155750,209748
OK,200,19,902,200,2014-10-01T17:45:00,0,28156199,209748
OK,254,15,902,254,2014-10-01T17:50:00,2,28156648,209748
OK,254,15,902,254,2014-10-01T17:55:00,2,28157086,209748
OK,254,15,902,254,2014-10-01T18:00:00,0,28157516,209748
OK,254,15,902,254,2014-10-01T18:05:00,0,28157964,209748
OK,107,36,902,107,2014-10-01T18:10:00,1,28158408,209748
OK,107,36,902,107,2014-10-01T18:15:00,0,28158854,209748
OK,107,36,902,107,2014-10-01T18:20:00,0,28159300,209748
OK,107,36,902,107,2014-10-01T18:25:00,0,28159635,209748
OK,107,36,902,107,2014-10-01T18:30:00,0,28160084,209748
OK,107,36,902,107,2014-10-01T18:35:00,0,28160533,209748
OK,107,36,902,107,2014-10-01T18:40:00,0,28160971,209748
OK,107,36,902,107,2014-10-01T18:45:00,0,28161420,209748
OK,107,36,902,107,2014-10-01T18:50:00,0,28161837,209748
OK,107,36,902,107,2014-10-01T18:55:00,0,28162286,209748
OK,107,36,902,107,2014-10-01T19:00:00,0,28162681,209748
OK,107,36,902,107,2014-10-01T19:05:00,0,28163119,209748
OK,107,36,902,107,2014-10-01T19:10:00,0,28163567,209748
OK,107,36,902,107,2014-10-01T19:15:00,0,28164016,209748
OK,107,36,902,107,2014-10-01T19:20:00,0,28164447,209748
OK,107,36,902,107,2014-10-01T19:25:00,0,28164896,209748
OK,98,39,902,98,2014-10-01T19:30:00,1,28165321,209748
OK,98,39,902,98,2014-10-01T19:35:00,1,28165769,209748
OK,98,39,902,98,2014-10-01T19:40:00,0,28166210,209748
OK,98,39,902,98,2014-10-01T19:45:00,0,28166572,209748
OK,98,39,902,98,2014-10-01T19:50:00,0,28167021,209748
OK,98,39,902,98,2014-10-01T19:55:00,0,28167450,209748
OK,98,39,902,98,2014-10-01T20:00:00,0,28167883,209748
OK,98,39,902,98,2014-10-01T20:05:00,0,28168332,209748
OK,98,39,902,98,2014-10-01T20:10:00,0,28168777,209748
OK,98,39,902,98,2014-10-01T20:15:00,0,28169226,209748
OK,98,39,902,98,2014-10-01T20:20:00,0,28169674,209748
OK,98,39,902,98,2014-10-01T20:25:00,0,28170100,209748
OK,98,39,902,98,2014-10-01T20:30:00,0,28170545,209748
OK,98,39,902,98,2014-10-01T20:35:00,0,28170993,209748
OK,98,39,902,98,2014-10-01T20:40:00,0,28171430,209748
OK,98,39,902,98,2014-10-01T20:45:00,0,28171876,209748
OK,98,39,902,98,2014-10-01T20:50:00,0,28172324,209748
OK,98,39,902,98,2014-10-01T20:55:00,0,28172770,209748
OK,98,39,902,98,2014-10-01T21:00:00,0,28173216,209748
OK,98,39,902,98,2014-10-01T21:05:00,0,28173665,209748
OK,98,39,902,98,2014-10-01T21:10:00,0,28174106,209748
OK,98,39,902,98,2014-10-01T21:15:00,0,28174555,209748
OK,98,39,902,98,2014-10-01T21:20:00,0,28174981,209748
OK,98,39,902,98,2014-10-01T21:25:00,0,28175377,209748
OK,98,39,902,98,2014-10-01T21:30:00,0,28175826,209748
OK,98,39,902,98,2014-10-01T21:35:00,0,28176275,209748
OK,98,39,902,98,2014-10-01T21:40:00,0,28176724,209748
OK,98,39,902,98,2014-10-01T21:45:00,0,28177081,209748
OK,98,39,902,98,2014-10-01T21:50:00,0,28177520,209748
OK,98,39,902,98,2014-10-01T21:55:00,0,28177966,209748
OK,98,39,902,98,2014-10-01T22:00:00,0,28178415,209748
OK,98,39,902,98,2014-10-01T22:05:00,0,28178862,209748
OK,98,39,902,98,2014-10-01T22:10:00,0,28179296,209748
OK,98,39,902,98,2014-10-01T22:15:00,0,28179739,209748
OK,98,39,902,98,2014-10-01T22:20:00,0,28180186,209748
OK,98,39,902,98,2014-10-01T22:25:00,0,28180584,209748
OK,98,39,902,98,2014-10-01T22:30:00,0,28181033,209748
OK,98,39,902,98,2014-10-01T22:35:00,0,28181457,209748
OK,98,39,902,98,2014-10-01T22:40:00,0,28181905,209748
OK,98,39,902,98,2014-10-01T22:45:00,0,28182352,209748
OK,98,39,902,98,2014-10-01T22:50:00,0,28182801,209748
OK,98,39,902,98,2014-10-01T22:55:00,0,28183218,209748
OK,98,39,902,98,2014-10-01T23:00:00,0,28183651,209748
OK,98,39,902,98,2014-10-01T23:05:00,0,28184096,209748
OK,98,39,902,98,2014-10-01T23:10:00,0,28184545,209748
OK,98,39,902,98,2014-10-01T23:15:00,0,28184980,209748
OK,98,39,902,98,2014-10-01T23:20:00,0,28185428,209748
OK,98,39,902,98,2014-10-01T23:25:00,0,28185859,209748
OK,98,39,902,98,2014-10-01T23:30:00,0,28186251,209748
OK,98,39,902,98,2014-10-01T23:40:00,0,28187098,209748
OK,98,39,902,98,2014-10-01T23:55:00,0,28188430,209748
OK,98,39,902,98,2014-10-02T00:00:00,0,28188866,209748
OK,98,39,902,98,2014-10-02T00:05:00,0,28189315,209748
OK,98,39,902,98,2014-10-02T00:10:00,0,28189737,209748
OK,98,39,902,98,2014-10-02T00:15:00,0,28190186,209748
OK,98,39,902,98,2014-10-02T00:20:00,0,28190539,209748
OK,98,39,902,98,2014-10-02T00:25:00,0,28190988,209748
OK,98,39,902,98,2014-10-02T00:30:00,0,28191437,209748
OK,98,39,902,98,2014-10-02T00:35:00,0,28191743,209748
OK,98,39,902,98,2014-10-02T00:40:00,0,28192192,209748
OK,98,39,902,98,2014-10-02T00:45:00,0,28192625,209748
OK,98,39,902,98,2014-10-02T00:50:00,0,28193069,209748
OK,98,39,902,98,2014-10-02T00:55:00,0,28193436,209748
OK,98,39,902,98,2014-10-02T01:05:00,0,28194334,209748
OK,98,39,902,98,2014-10-02T01:15:00,0,28194783,209748
OK,98,39,902,98,2014-10-02T01:20:00,0,28195468,209748
OK,98,39,902,98,2014-10-02T01:30:00,0,28195917,209748
OK,98,39,902,98,2014-10-02T01:35:00,0,28196650,209748
OK,98,39,902,98,2014-10-02T01:40:00,0,28197073,209748
OK,98,39,902,98,2014-10-02T01:45:00,0,28197522,209748
OK,98,39,902,98,2014-10-02T01:50:00,0,28197970,209748
OK,98,39,902,98,2014-10-02T01:55:00,0,28198418,209748
OK,98,39,902,98,2014-10-02T02:00:00,0,28198867,209748
OK,98,39,902,98,2014-10-02T02:05:00,0,28199241,209748
OK,98,39,902,98,2014-10-02T02:10:00,0,28199681,209748
OK,98,39,902,98,2014-10-02T02:15:00,0,28200123,209748
OK,98,39,902,98,2014-10-02T02:20:00,0,28200566,209748
OK,98,39,902,98,2014-10-02T02:25:00,0,28201015,209748
OK,98,39,902,98,2014-10-02T02:30:00,0,28201446,209748
OK,98,39,902,98,2014-10-02T02:45:00,0,28202344,209748
OK,98,39,902,98,2014-10-02T02:50:00,0,28202786,209748
OK,98,39,902,98,2014-10-02T02:55:00,0,28203234,209748
OK,98,39,902,98,2014-10-02T03:00:00,0,28203669,209748
OK,98,39,902,98,2014-10-02T03:10:00,0,28204118,209748
OK,98,39,902,98,2014-10-02T03:25:00,0,28204567,209748
OK,98,39,902,98,2014-10-02T03:30:00,0,28205016,209748
OK,98,39,902,98,2014-10-02T03:35:00,0,28205444,209748
OK,98,39,902,98,2014-10-02T03:40:00,0,28205891,209748
OK,98,39,902,98,2014-10-02T03:45:00,0,28206274,209748
OK,98,39,902,98,2014-10-02T03:55:00,0,28207172,209748
OK,98,39,902,98,2014-10-02T04:00:00,0,28207592,209748
OK,98,39,902,98,2014-10-02T04:05:00,0,28208040,209748
OK,98,39,902,98,2014-10-02T04:10:00,0,28208467,209748
OK,98,39,902,98,2014-10-02T04:15:00,0,28208916,209748
OK,98,39,902,98,2014-10-02T04:20:00,0,28209354,209748
OK,98,39,902,98,2014-10-02T04:25:00,0,28209803,209748
OK,98,39,902,98,2014-10-02T04:30:00,0,28210226,209748
OK,98,39,902,98,2014-10-02T04:35:00,0,28210675,209748
OK,98,39,902,98,2014-10-02T04:40:00,0,28211100,209748
OK,98,39,902,98,2014-10-02T04:45:00,0,28211544,209748
OK,98,39,902,98,2014-10-02T04:50:00,0,28211922,209748
OK,98,39,902,98,2014-10-02T04:55:00,0,28212371,209748
OK,98,39,902,98,2014-10-02T05:00:00,0,28212800,209748
OK,98,39,902,98,2014-10-02T05:05:00,0,28213249,209748
OK,98,39,902,98,2014-10-02T05:10:00,0,28213687,209748
OK,98,39,902,98,2014-10-02T05:15:00,0,28214136,209748
OK,98,39,902,98,2014-10-02T05:20:00,0,28214549,209748
OK,98,39,902,98,2014-10-02T05:25:00,0,28214998,209748
OK,98,39,902,98,2014-10-02T05:30:00,0,28215414,209748
OK,98,39,902,98,2014-10-02T05:40:00,0,28215863,209748
OK,98,39,902,98,2014-10-02T05:45:00,0,28216642,209748
OK,98,39,902,98,2014-10-02T05:50:00,0,28217089,209748
OK,98,39,902,98,2014-10-02T05:55:00,0,28217538,209748
OK,98,39,902,98,2014-10-02T06:00:00,0,28217977,209748
OK,98,39,902,98,2014-10-02T06:05:00,0,28218426,209748
OK,98,39,902,98,2014-10-02T06:10:00,0,28218846,209748
OK,297,13,902,297,2014-10-02T06:15:00,2,28219295,209748
OK,314,12,902,314,2014-10-02T06:20:00,1,28219668,209748
OK,123,31,902,123,2014-10-02T06:25:00,1,28220117,209748
OK,123,31,902,123,2014-10-02T06:30:00,1,28220551,209748
OK,123,31,902,123,2014-10-02T06:35:00,0,28221000,209748
OK,123,31,902,123,2014-10-02T06:40:00,0,28221383,209748
OK,123,31,902,123,2014-10-02T06:45:00,0,28221667,209748
OK,123,31,902,123,2014-10-02T07:00:00,0,28222261,209748
OK,123,31,902,123,2014-10-02T07:05:00,0,28222710,209748
OK,123,31,902,123,2014-10-02T07:10:00,0,28223141,209748
OK,123,31,902,123,2014-10-02T07:15:00,0,28223577,209748
OK,123,31,902,123,2014-10-02T07:20:00,0,28224024,209748
OK,123,31,902,123,2014-10-02T07:25:00,0,28224379,209748
OK,123,31,902,123,2014-10-02T07:30:00,0,28224828,209748
OK,123,31,902,123,2014-10-02T07:35:00,0,28225277,209748
OK,123,31,902,123,2014-10-02T07:40:00,0,28225599,209748
OK,123,31,902,123,2014-10-02T07:50:00,0,28226489,209748
OK,123,31,902,123,2014-10-02T07:55:00,0,28226938,209748
OK,123,31,902,123,2014-10-02T08:00:00,0,28227353,209748
OK,123,31,902,123,2014-10-02T08:05:00,0,28227802,209748
OK,123,31,902,123,2014-10-02T08:10:00,0,28228161,209748
OK,123,31,902,123,2014-10-02T08:15:00,0,28228610,209748
OK,123,31,902,123,2014-10-02T08:20:00,0,28229020,209748
OK,123,31,902,123,2014-10-02T08:25:00,0,28229469,209748
OK,123,31,902,123,2014-10-02T08:30:00,0,28229819,209748
OK,123,31,902,123,2014-10-02T08:35:00,0,28230268,209748
OK,123,31,902,123,2014-10-02T08:40:00,0,28230635,209748
OK,123,31,902,123,2014-10-02T08:45:00,0,28231083,209748
OK,123,31,902,123,2014-10-02T08:50:00,0,28231506,209748
OK,123,31,902,123,2014-10-02T08:55:00,0,28231955,209748
OK,123,31,902,123,2014-10-02T09:00:00,0,28232297,209748
OK,123,31,902,123,2014-10-02T09:10:00,0,28232746,209748
OK,123,31,902,123,2014-10-02T09:15:00,0,28233195,209748
OK,123,31,902,123,2014-10-02T09:20:00,0,28233619,209748
OK,123,31,902,123,2014-10-02T09:25:00,0,28234068,209748
OK,123,31,902,123,2014-10-02T09:30:00,0,28234401,209748
OK,114,33,902,114,2014-10-02T09:35:00,2,28234850,209748
OK,114,33,902,114,2014-10-02T09:40:00,0,28235277,209748
OK,114,33,902,114,2014-10-02T09:45:00,0,28235726,209748
OK,114,33,902,114,2014-10-02T09:50:00,0,28236169,209748
OK,114,33,902,114,2014-10-02T09:55:00,0,28236616,209748
OK,114,33,902,114,2014-10-02T10:00:00,0,28237019,209748
OK,114,33,902,114,2014-10-02T10:05:00,0,28237467,209748
OK,84,46,902,84,2014-10-02T10:10:00,1,28237915,209748
OK,166,23,902,166,2014-10-02T10:15:00,2,28238362,209748
OK,166,23,902,166,2014-10-02T10:20:00,0,28238803,209748
OK,166,23,902,166,2014-10-02T10:25:00,0,28239252,209748
OK,166,23,902,166,2014-10-02T10:30:00,0,28239682,209748
OK,103,37,902,103,2014-10-02T10:35:00,0,28240131,209748
OK,103,37,902,103,2014-10-02T10:40:00,0,28240575,209748
OK,103,37,902,103,2014-10-02T10:45:00,0,28241024,209748
OK,103,37,902,103,2014-10-02T10:50:00,0,28241456,209748
OK,103,37,902,103,2014-10-02T10:55:00,0,28241904,209748
OK,103,37,902,103,2014-10-02T11:00:00,0,28242300,209748
OK,103,37,902,103,2014-10-02T11:05:00,0,28242749,209748
OK,103,37,902,103,2014-10-02T11:15:00,0,28243198,209748
OK,103,37,902,103,2014-10-02T11:20:00,0,28243961,209748
OK,103,37,902,103,2014-10-02T11:25:00,0,28244390,209748
OK,103,37,902,103,2014-10-02T11:30:00,0,28244839,209748
OK,103,37,902,103,2014-10-02T11:35:00,0,28245288,209748
OK,103,37,902,103,2014-10-02T11:40:00,0,28245694,209748
OK,103,37,902,103,2014-10-02T11:45:00,0,28246143,209748
OK,103,37,902,103,2014-10-02T11:50:00,0,28246580,209748
OK,103,37,902,103,2014-10-02T11:55:00,0,28247029,209748
OK,103,37,902,103,2014-10-02T12:00:00,0,28247475,209748
OK,103,37,902,103,2014-10-02T12:05:00,0,28247905,209748
OK,103,37,902,103,2014-10-02T12:10:00,0,28248354,209748
OK,103,37,902,103,2014-10-02T12:15:00,0,28248801,209748
OK,103,37,902,103,2014-10-02T12:20:00,0,28249229,209748
OK,103,37,902,103,2014-10-02T12:25:00,0,28249673,209748
OK,103,37,902,103,2014-10-02T12:30:00,0,28250092,209748
OK,103,37,902,103,2014-10-02T12:35:00,0,28250490,209748
OK,103,37,902,103,2014-10-02T12:45:00,0,28251270,209748
OK,103,37,902,103,2014-10-02T13:20:00,0,28251815,209748
OK,103,37,902,103,2014-10-02T13:30:00,0,28252399,209748
OK,103,37,902,103,2014-10-02T13:35:00,0,28252841,209748
OK,103,37,902,103,2014-10-02T13:40:00,0,28253258,209748
OK,103,37,902,103,2014-10-02T13:45:00,0,28253707,209748
OK,103,37,902,103,2014-10-02T13:50:00,0,28254112,209748
OK,103,37,902,103,2014-10-02T13:55:00,0,28254433,209748
OK,103,37,902,103,2014-10-02T14:10:00,0,28255010,209748
OK,103,37,902,103,2014-10-02T14:15:00,0,28255459,209748
OK,103,37,902,103,2014-10-02T14:20:00,0,28255887,209748
OK,103,37,902,103,2014-10-02T14:25:00,0,28256336,209748
OK,103,37,902,103,2014-10-02T14:30:00,0,28256764,209748
OK,103,37,902,103,2014-10-02T14:35:00,0,28257213,209748
OK,103,37,902,103,2014-10-02T14:40:00,0,28257654,209748
OK,103,37,902,103,2014-10-02T14:45:00,0,28258102,209748
OK,103,37,902,103,2014-10-02T14:50:00,0,28258535,209748
OK,103,37,902,103,2014-10-02T14:55:00,0,28258981,209748
OK,103,37,902,103,2014-10-02T15:00:00,0,28259430,209748
OK,103,37,902,103,2014-10-02T15:05:00,0,28259877,209748
OK,103,37,902,103,2014-10-02T15:10:00,0,28260310,209748
OK,103,37,902,103,2014-10-02T15:15:00,0,28260759,209748
OK,103,37,902,103,2014-10-02T15:20:00,0,28261199,209748
OK,103,37,902,103,2014-10-02T15:25:00,0,28261581,209748
OK,103,37,902,103,2014-10-02T15:30:00,0,28262011,209748
OK,103,37,902,103,2014-10-02T15:40:00,0,28262904,209748
OK,103,37,902,103,2014-10-02T15:45:00,0,28263342,209748
OK,103,37,902,103,2014-10-02T15:50:00,0,28263783,209748
OK,103,37,902,103,2014-10-02T15:55:00,0,28264185,209748
OK,103,37,902,103,2014-10-02T16:00:00,0,28264634,209748